Location: Gallinara
(44.0333°N, 8.2333°E)
Time: 06:36:52
(UTC+00:00)

CZ-2D R/B - Pass Details

Date: 25 September 2020
Orbit: 553 x 637 km, 97.9° (Epoch: 23 October)

Event Time Altitude Azimuth Distance (km) Brightness Sun altitude
Rises 03:21:49 0° 3° (N) 2,862 7.3 -21.3°
Reaches altitude 10° 03:24:07 10° 355° (N) 1,968 6.3 -20.9°
Enters shadow 03:27:20 32° 309° (NW) 1,068 4.5 -20.4°
